Regional Weather Roundup
Issued by NWS Upton, NY

Current Version | Previous Version | Text Only | Print | Product List | Glossary On
Versions: 1 2 3 4 5 6 7 8 9 10 11 12 13 14 15 16 17 18 19 20 21 22 23 24 25 26 27 28 29 30 31 32 33 34 35 36 37 38 39 40 41 42 43 44 45 46 47 48 49
000 ASUS41 KOKX 141804 RWROKX REGIONAL WEATHER ROUNDUP NATIONAL WEATHER SERVICE NEW YORK NY 100 PM EST SUN FEB 14 2016 NOTE: "FAIR" INDICATES FEW OR NO CLOUDS BELOW 12,000 FEET WITH NO SIGNIFICANT WEATHER AND/OR OBSTRUCTIONS TO VISIBILITY. NYZ071-072-176-178-NJZ106-104-141900- NEW YORK CITY METRO AREA CITY SKY/WX TMP DP RH WIND PRES REMARKS CENTRAL PARK SUNNY 11 -16 28 NW7 30.52F WCI 0 LAGUARDIA APRT MOSUNNY 11 -12 35 NW10 30.51F WCI -3 KENNEDY INTL MOSUNNY 12 -15 28 N12 30.53S WCI -2 NEWARK/LIBERTY SUNNY 14 -18 22 NW9G16 30.53S WCI 2 BRNX BOT. GARD N/A 12 -15 29 NW10 30.50R WCI -1 TETERBORO SUNNY 11 -17 27 N12G23 30.52F WCI -3 $$ NYZ177-179-078>081-141900- LONG ISLAND NEW YORK CITY SKY/WX TMP DP RH WIND PRES REMARKS FARMINGDALE SUNNY 18 -11 27 N12 30.50F WCI 5 ISLIP MOSUNNY 9 -9 44 NW17G25 30.47F WCI -9 SHIRLEY SUNNY 8 -9 45 NW20G31 30.48F WCI -11 RIVERHEAD N/A 1 -9 60 NW7 30.46S WCI -11 WESTHAMPTON SUNNY 6 -7 54 NW20G25 30.47F WCI -14 EAST HAMPTON FAIR 6 -9 50 NW9G21 30.45S WCI -8 MONTAUK POINT N/A 8 -5 55 NW14 30.44F WCI -8 $$ NYZ052-065-067-141900- HUDSON VALLEY CITY SKY/WX TMP DP RH WIND PRES REMARKS WHITE PLAINS SUNNY 8 -14 35 NW12 30.44F WCI -7 NEWBURGH SUNNY 7 -17 33 NW12 30.46F WCI -9 MONTGOMERY SUNNY 10 -18 27 NW9G18 30.46F WCI -3 POUGHKEEPSIE SUNNY 10 -17 28 VRB6 30.49F WCI 0 ALBANY SUNNY 3 -19 35 NW12 30.51F WCI -13 $$ NJZ001-105-106-008-010-013-015-019>022-104-141900- NEW JERSEY CITY SKY/WX TMP DP RH WIND PRES REMARKS NEWARK/LIBERTY SUNNY 14 -18 22 NW9G16 30.53S WCI 2 TETERBORO SUNNY 11 -17 27 N12G23 30.52F WCI -3 CALDWELL SUNNY 10 -20 24 VRB7 30.51F WCI -1 MORRISTOWN SUNNY 12 -15 29 NW14 30.52F WCI -3 SOMERVILLE SUNNY 12 -14 30 NW9 30.51F WCI 0 SUSSEX SUNNY 9 -15 33 N12G18 30.46F WCI -6 ANDOVER N/A 10 -15 31 N5 30.46F WCI 2 TRENTON SUNNY 13 -12 32 N9 30.52F WCI 1 MILLVILLE SUNNY 19 -8 30 NW12G24 30.52F WCI 7 ATLANTIC CITY SUNNY 18 -12 26 NW8G22 30.51F WCI 8 WRIGHTSTOWN NOT AVBL TOMS RIVER SUNNY 16 -11 29 NW12G23 30.51F WCI 3 BELMAR SUNNY 12 -15 29 NW15G21 30.50S WCI -4 $$ PAZ047>061-062-071-141900- EASTERN PENNSYLVANIA CITY SKY/WX TMP DP RH WIND PRES REMARKS PHILADELPHIA MOSUNNY 17 -13 25 N12 30.54F WCI 4 ALLENTOWN SUNNY 12 -10 36 VRB5 30.50F WCI 4 SCRANTON SUNNY 6 -11 45 CALM 30.44F $$ CTZ002-004>006-009-010-012-RIZ004-006-007-MAZ004-011-015-141900- SOUTHERN NEW ENGLAND IN CT CITY SKY/WX TMP DP RH WIND PRES REMARKS BRADLEY INTL SUNNY 6 -18 32 CALM 30.44F HARTFORD MIX PCPN 7 -17 32 NW9 30.47F WCI -7 DANBURY SUNNY 5 -18 33 NW12 30.46F WCI -11 WTRBRY/OXFORD SUNNY 1 -22 32 N14G20 30.42S WCI -17 BRIDGEPORT SUNNY 8 -16 32 NW16 30.49F WCI -10 MERIDEN SUNNY 8 -17 31 NW13 30.45F WCI -8 NEW HAVEN SUNNY 7 -15 36 N12G18 30.48S WCI -8 CHESTER FAIR 7 -18 30 N9 30.42R WCI -7 GROTON SUNNY 7 -3 64 N13G24 30.43F WCI -9 WILLIMANTIC SUNNY 6 -16 35 NW9 30.43F WCI -8 IN RI CITY SKY/WX TMP DP RH WIND PRES REMARKS PROVIDENCE SUNNY 8 -15 34 NW14 30.41F WCI -8 BLOCK ISLAND SUNNY 9 -6 52 NW8G17 30.38F WCI -4 WESTERLY SUNNY 6 -17 34 NW14G20 30.42F WCI -11 IN MA CITY SKY/WX TMP DP RH WIND PRES REMARKS BOSTON SUNNY 9 -14 34 W17G24 30.37F WCI -9 WORCESTER SUNNY 3 -18 37 W12G25 30.29S WCI -13 WESTFIELD SUNNY 5 -17 35 NW8G21 30.43S WCI -8 PROVINCETOWN FLURRIES 7 1 76 W16 30.36R WCI -11 NANTUCKET PTSUNNY 9 -1 64 NW15 30.36S WCI -8 $$ ANZ330-335-338-340-345-350-353-355-141900- COASTAL MARINE OBSERVATIONS STATION/POSITION TIME SKY/WX TEMP WIND PRES VSBY WAVE AIR SEA DIR/SP/G HT/PER (UTC) (F) (DEG/KT/KT) (MB) (MI) (FT/S) NY HARB ENTRANCE 1650 9 44 330/ 16/ 19 1033.5 3/ 4 4S FIRE IS NOT AVBL 20S FIRE ISLAND 1650 8 40 320/ 17/ 21 1032.4 4/ 5 GREAT SOUTH BAY NOT AVBL 23SW MTP 1750 8 43 320/ 21/ 29 1030.1 5/ 6 HUDSON CANYON 1650 14 48 1030.7 8/ 7 KINGS POINT 1700 6 32 40/ 8/ 13 1033.1 EXECUTION ROCKS NOT AVBL CENTRAL LI SOUND 1715 5 310/ 12/ 17 N/A 2/ 4 EASTERN LI SOUND 1700 7 40 320/ 16/ 23 N/A ROBBINS REEF 1700 6 330/ 11/ 15 1032.8 $$ >>>>>>>>>>>>>>>>>>>>>>>>>>>> KEY <<<<<<<<<<<<<<<<<<<<<<<<<<< > < > SKY/WX - SKY CONDITION/PRESENT WEATHER < > TMP - TEMPERATURE IN FAHRENHEIT < > DP - DEWPOINT IN FAHRENHEIT < > RH - RELATIVE HUMIDITY IN PERCENT < > WIND - DIRECTION AND SPEED IN MPH < > PRES - MEAN SEA LEVEL PRESSURE IN INCHES OF HG < > WCI - WIND CHILL INDEX < > VSB - VISIBILITY IN MILES < > HX - HEAT INDEX < > TC - TEMPERATURE IN CELSIUS < > VRB - VARIABLE WIND DIRECTION < > < >>>>>>>>>>>>>>>>>>>>>>>>>>>> KEY <<<<<<<<<<<<<<<<<<<<<<<<<<<

USA.gov is the U.S. government's official web portal to all federal, state and local government web resources and services.